Location: Bavegemberg
(50.9500°N, 3.8833°E)
Time: 06:47:47
(UTC+00:00)

IDEFIX/ARIANE 42P - Pass Details

Date: 23 May 2024
Orbit: 783 x 799 km, 98.5° (Epoch: 19 June)

Event Time Altitude Azimuth Distance (km) Brightness Sun altitude
Rises 02:56:54 0° 7° (N) 3,318 6.7 -6.5°
Reaches altitude 10° 02:59:32 10° 356° (N) 2,385 5.7 -6.2°
Maximum altitude 03:03:53 27° 300° (WNW) 1,499 3.9 -5.7°
Drops below altitude 10° 03:08:13 10° 244° (WSW) 2,374 4.4 -5.2°
Enters shadow 03:09:20 - 239° (WSW) 2,755 4.7 -5.1°
